FW8483 Weather Reports


time (UTC)temp
C
wind
direction
speed
KPH
gust
KPH
rain 1hr
cm
rain 24hr
cm
rain mn
cm
humidity
%
barometer
mb
20260831191512 31 101 6.4 12.9 0.00 0.00 0.00 67 1017.2
20260831191005 31 96 4.8 12.9 0.00 0.00 0.00 70 1017.2
20260831190505 31 84 8.0 16.1 0.00 0.00 0.00 67 1017.2
20260831190012 31 94 6.4 16.1 0.00 0.00 0.00 66 1017.3
20260831185505 32 80 6.4 16.1 0.00 0.00 0.00 65 1017.4
20260831185006 32 70 9.7 17.7 0.00 0.00 0.00 70 1017.4
20260831184514 32 88 8.0 17.7 0.00 0.00 0.00 66 1017.4
20260831184003 31 72 4.8 17.7 0.00 0.00 0.00 70 1017.5
20260831183503 31 76 8.0 17.7 0.00 0.00 0.00 66 1017.6
20260831183012 31 136 8.0 16.1 0.00 0.00 0.00 67 1017.7
20260831182506 31 103 9.7 16.1 0.00 0.00 0.00 68 1017.8
20260831182007 31 111 8.0 14.5 0.00 0.00 0.00 67 1017.8
20260831181515 31 101 9.7 14.5 0.00 0.00 0.00 65 1017.9
20260831181007 31 88 8.0 14.5 0.00 0.00 0.00 68 1017.9
20260831180507 31 84 8.0 14.5 0.00 0.00 0.00 68 1017.9
20260831180012 31 63 9.7 17.7 0.00 0.00 0.00 66 1018.0
20260831175507 31 45 4.8 17.7 0.00 0.00 0.00 66 1018.0
20260831175003 31 96 11.3 16.1 0.00 0.00 0.00 68 1018.0
20260831174513 31 51 9.7 14.5 0.00 0.00 0.00 71 1018.1
20260831174008 31 104 6.4 14.5 0.00 0.00 0.00 67 1018.1
20260831173507 31 60 6.4 17.7 0.00 0.00 0.00 69 1018.1
20260831173016 31 33 11.3 16.1 0.00 0.00 0.00 69 1018.2
20260831172508 31 97 6.4 12.9 0.00 0.00 0.00 72 1018.3
20260831172009 30 99 6.4 12.9 0.00 0.00 0.00 69 1018.3
20260831171522 30 28 6.4 12.9 0.00 0.00 0.00 72 1018.4
20260831171003 30 74 8.0 12.9 0.00 0.00 0.00 71 1018.5
20260831170506 30 85 8.0 19.3 0.00 0.00 0.00 73 1018.5
20260831170003 30 87 6.4 19.3 0.00 0.00 0.00 70 1018.7
20260831165501 30 85 8.0 12.9 0.00 0.00 0.00 72 1018.7
20260831165002 30 96 0.0 12.9 0.00 0.00 0.00 73 1018.7
20260831164503 30 72 8.0 12.9 0.00 0.00 0.00 71 1018.7
20260831164003 30 57 4.8 14.5 0.00 0.00 0.00 75 1018.7
20260831163503 30 94 8.0 16.1 0.00 0.00 0.00 74 1018.7
20260831163008 30 59 8.0 16.1 0.00 0.00 0.00 71 1018.6
20260831162504 30 90 4.8 16.1 0.00 0.00 0.00 76 1018.8
20260831162004 29 71 3.2 16.1 0.00 0.00 0.00 77 1018.7
20260831161505 29 30 9.7 17.7 0.00 0.00 0.00 75 1018.7
20260831161003 29 26 8.0 17.7 0.00 0.00 0.00 78 1018.9
20260831160503 30 58 8.0 14.5 0.00 0.00 0.00 76 1019.1
20260831160010 29 65 6.4 14.5 0.00 0.00 0.00 78 1019.2
20260831155504 29 9 4.8 14.5 0.00 0.00 0.00 78 1019.2
20260831155002 29 98 6.4 16.1 0.00 0.00 0.00 79 1019.4
20260831154519 29 107 9.7 16.1 0.00 0.00 0.00 79 1019.4
20260831154003 29 94 4.8 12.9 0.00 0.00 0.00 80 1019.4
20260831153502 28 83 4.8 14.5 0.00 0.00 0.00 80 1019.5
20260831153009 28 94 4.8 14.5 0.00 0.00 0.00 81 1019.5
20260831152503 28 82 11.3 14.5 0.00 0.00 0.00 80 1019.5
20260831152006 28 352 4.8 12.9 0.00 0.00 0.00 82 1019.5
20260831151510 28 82 9.7 12.9 0.00 0.00 0.00 80 1019.5
20260831151005 28 58 8.0 12.9 0.00 0.00 0.00 83 1019.5
20260831150504 28 59 8.0 16.1 0.00 0.00 0.00 81 1019.4
20260831150010 28 74 9.7 16.1 0.00 0.00 0.00 82 1019.5
20260831145503 28 70 9.7 16.1 0.00 0.00 0.00 83 1019.5
20260831145003 27 107 4.8 12.9 0.00 0.00 0.00 84 1019.4
20260831144521 27 71 8.0 12.9 0.00 0.00 0.00 84 1019.4
20260831144005 27 38 6.4 14.5 0.00 0.00 0.00 85 1019.3
20260831143504 27 86 9.7 14.5 0.00 0.00 0.00 85 1019.4
20260831143008 27 90 8.0 11.3 0.00 0.00 0.00 86 1019.5
20260831142502 26 69 6.4 12.9 0.00 0.00 0.00 87 1019.6
20260831142004 26 85 8.0 12.9 0.00 0.00 0.00 88 1019.6
20260831141512 26 95 4.8 12.9 0.00 0.00 0.00 89 1019.5
20260831141005 26 67 6.4 12.9 0.00 0.00 0.00 88 1019.4
20260831140505 26 56 4.8 12.9 0.00 0.00 0.00 90 1019.4
20260831140008 25 74 6.4 12.9 0.00 0.00 0.00 90 1019.4
20260831135503 25 74 8.0 12.9 0.00 0.00 0.00 90 1019.4
20260831135004 25 98 4.8 9.7 0.00 0.00 0.00 93 1019.3
20260831134510 25 76 4.8 9.7 0.00 0.00 0.00 92 1019.3
20260831134004 25 83 4.8 9.7 0.00 0.00 0.00 92 1019.4
20260831133507 25 94 8.0 9.7 0.00 0.00 0.00 92 1019.2
20260831133009 25 46 3.2 8.0 0.00 0.00 0.00 93 1019.2
20260831132506 24 70 4.8 9.7 0.00 0.00 0.00 93 1019.2
20260831132006 24 28 4.8 12.9 0.00 0.00 0.00 93 1019.0
20260831131510 24 43 3.2 12.9 0.00 0.00 0.00 94 1018.8
20260831131006 24 76 6.4 11.3 0.00 0.00 0.00 94 1018.7
20260831130503 23 70 4.8 11.3 0.00 0.00 0.00 94 1018.8
20260831130009 23 39 4.8 11.3 0.00 0.00 0.00 94 1018.8
20260831125506 23 28 3.2 9.7 0.00 0.00 0.00 94 1018.8
20260831125005 23 61 6.4 9.7 0.00 0.00 0.00 94 1018.8
20260831124510 23 57 3.2 12.9 0.00 0.00 0.00 95 1018.8
20260831124003 23 57 4.8 12.9 0.00 0.00 0.00 95 1018.7
20260831123504 23 42 4.8 12.9 0.00 0.00 0.00 95 1018.6
20260831123009 23 27 4.8 9.7 0.00 0.00 0.00 95 1018.5
20260831122505 23 19 4.8 9.7 0.00 0.00 0.00 96 1018.6
20260831122006 23 55 4.8 9.7 0.00 0.00 0.00 96 1018.6
20260831121517 23 45 3.2 8.0 0.00 0.00 0.00 96 1018.5
20260831121007 23 46 1.6 8.0 0.00 0.00 0.00 96 1018.6
20260831120506 23 27 3.2 6.4 0.00 0.00 0.00 96 1018.5
20260831120021 22 47 1.6 6.4 0.00 0.00 0.00 96 1018.5
20260831115504 22 40 3.2 6.4 0.00 0.00 0.00 96 1018.4
20260831115006 22 59 3.2 6.4 0.00 0.00 0.00 96 1018.3
20260831114513 22 22 3.2 6.4 0.00 0.00 0.00 96 1018.2
20260831114007 22 352 3.2 6.4 0.00 0.00 0.00 96 1018.3
20260831113507 22 45 3.2 6.4 0.00 0.00 0.00 96 1018.2
20260831113013 22 21 1.6 6.4 0.00 0.03 0.00 96 1018.1
20260831112506 22 26 1.6 6.4 0.00 0.03 0.00 96 1018.0
20260831112002 22 17 3.2 6.4 0.00 0.03 0.00 96 1018.0
20260831111526 22 23 1.6 6.4 0.00 0.03 0.00 96 1017.9
20260831111010 22 32 1.6 6.4 0.00 0.03 0.00 96 1017.8
20260831110507 22 12 3.2 6.4 0.00 0.03 0.00 96 1017.7
20260831110014 22 76 3.2 6.4 0.00 0.03 0.00 96 1017.6
20260831105505 22 59 0.0 4.8 0.00 0.03 0.00 96 1017.4
20260831105008 22 65 0.0 0.0 0.00 0.03 0.00 96 1017.3
20260831104528 22 68 0.0 0.0 0.00 0.03 0.00 96 1017.2
20260831104007 22 62 0.0 0.0 0.00 0.03 0.00 96 1017.2
20260831103508 22 59 0.0 0.0 0.00 0.03 0.00 96 1017.2
20260831103037 22 59 0.0 0.0 0.00 0.03 0.00 96 1017.3
20260831102507 22 59 0.0 0.0 0.00 0.03 0.00 96 1017.3
20260831102007 22 59 0.0 0.0 0.00 0.03 0.00 96 1017.3
20260831101517 22 71 0.0 3.2 0.00 0.03 0.00 96 1017.3
20260831101007 22 66 0.0 6.4 0.00 0.03 0.00 96 1017.2
20260831100506 22 76 3.2 6.4 0.00 0.03 0.00 96 1017.2
20260831100024 22 53 0.0 4.8 0.00 0.03 0.00 96 1017.2
20260831095506 22 60 1.6 4.8 0.00 0.03 0.00 96 1017.2
20260831095010 22 57 3.2 4.8 0.00 0.03 0.00 96 1017.3
20260831094528 22 49 0.0 4.8 0.00 0.03 0.00 96 1017.2
20260831094008 22 61 0.0 4.8 0.00 0.03 0.00 95 1017.2
20260831093508 23 83 3.2 4.8 0.00 0.03 0.00 96 1017.2
20260831093016 23 65 0.0 3.2 0.00 0.03 0.00 95 1017.2
20260831092507 23 66 0.0 0.0 0.00 0.03 0.00 96 1017.2
20260831092008 23 66 0.0 0.0 0.00 0.03 0.00 96 1017.1
20260831091516 23 25 0.0 0.0 0.00 0.03 0.00 96 1017.1
20260831091007 23 28 0.0 0.0 0.00 0.03 0.00 96 1017.2
20260831090510 23 62 0.0 0.0 0.00 0.03 0.00 96 1017.2
20260831090018 23 45 0.0 0.0 0.00 0.03 0.00 96 1017.2
20260831085508 23 48 0.0 0.0 0.00 0.03 0.00 95 1017.2
20260831085008 23 61 0.0 0.0 0.00 0.05 0.00 95 1017.1
20260831084520 23 80 0.0 0.0 0.00 0.05 0.00 95 1017.2
20260831084009 23 31 0.0 0.0 0.00 0.05 0.00 95 1017.2
20260831083509 23 31 0.0 0.0 0.00 0.05 0.00 95 1017.1
20260831083025 23 31 0.0 0.0 0.00 0.05 0.00 95 1017.2
20260831082508 23 31 0.0 0.0 0.00 0.05 0.00 95 1017.1
20260831082006 23 31 0.0 0.0 0.00 0.05 0.00 95 1017.1
20260831081519 23 31 0.0 0.0 0.00 0.05 0.00 95 1017.2
20260831081014 23 31 0.0 0.0 0.00 0.05 0.00 95 1017.2
20260831080512 23 352 0.0 0.0 0.00 0.05 0.00 95 1017.1
20260831080040 23 352 0.0 0.0 0.00 0.05 0.00 95 1017.1
20260831075507 23 5 0.0 0.0 0.00 0.05 0.00 95 1017.1
20260831075009 23 30 0.0 0.0 0.00 0.05 0.00 95 1017.1
20260831074524 23 30 0.0 0.0 0.00 0.05 0.00 95 1017.1
20260831074008 23 30 0.0 0.0 0.00 0.05 0.00 95 1017.2
20260831073511 23 30 0.0 0.0 0.00 0.05 0.00 95 1017.2
20260831073030 23 30 0.0 0.0 0.00 0.05 0.00 95 1017.3
20260831072510 23 30 0.0 0.0 0.00 0.05 0.00 95 1017.2
20260831072011 23 30 0.0 0.0 0.00 0.05 0.00 95 1017.1
20260831071520 23 30 0.0 0.0 0.00 0.05 0.00 95 1017.1
20260831071013 23 30 0.0 0.0 0.00 0.05 0.00 95 1017.1
20260831070511 23 30 0.0 0.0 0.00 0.08 0.00 95 1017.1
20260831070021 23 30 0.0 0.0 0.00 0.08 0.00 95 1017.2
20260831065512 23 30 0.0 0.0 0.00 0.08 0.00 95 1017.2
20260831065011 23 30 0.0 0.0 0.00 0.08 0.00 94 1017.2
20260831064521 23 30 0.0 0.0 0.00 0.08 0.00 94 1017.3
20260831064009 23 30 0.0 0.0 0.00 0.08 0.00 94 1017.4
20260831063510 23 30 0.0 0.0 0.00 0.08 0.00 94 1017.3
20260831063024 23 30 0.0 3.2 0.00 0.08 0.00 95 1017.4
20260831062510 23 30 0.0 3.2 0.00 0.08 0.00 95 1017.4
20260831062013 23 44 0.0 3.2 0.00 0.08 0.00 95 1017.4
20260831061524 23 36 0.0 1.6 0.00 0.08 0.00 95 1017.4
20260831061014 23 36 0.0 0.0 0.00 0.08 0.00 95 1017.4
20260831060512 23 11 0.0 0.0 0.00 0.08 0.00 95 1017.4
20260831060026 23 11 0.0 0.0 0.00 0.08 0.00 95 1017.5
20260831055507 23 11 0.0 0.0 0.00 0.08 0.00 95 1017.6
20260831055006 23 11 0.0 0.0 0.00 0.10 0.00 95 1017.4
20260831054518 23 11 0.0 0.0 0.00 0.10 0.00 95 1017.4
20260831054009 23 11 0.0 0.0 0.00 0.10 0.00 95 1017.5
20260831053511 23 11 0.0 0.0 0.00 0.10 0.00 95 1017.4
20260831053028 23 11 0.0 0.0 0.00 0.10 0.00 94 1017.3
20260831052512 23 11 0.0 0.0 0.00 0.10 0.00 94 1017.4
20260831052003 23 11 0.0 0.0 0.00 0.10 0.00 94 1017.5
20260831051511 23 11 0.0 0.0 0.00 0.10 0.00 94 1017.4
20260831051003 23 11 0.0 0.0 0.00 0.10 0.00 94 1017.4
20260831050503 23 11 0.0 0.0 0.00 0.10 0.00 94 1017.5
20260831050012 23 11 0.0 0.0 0.00 0.10 0.00 94 1017.5
20260831045507 23 11 0.0 0.0 0.00 0.10 0.10 94 1017.6
20260831045005 23 11 0.0 0.0 0.00 0.10 0.10 94 1017.6
20260831044516 23 11 0.0 0.0 0.00 0.10 0.10 94 1017.6
20260831044009 23 11 0.0 0.0 0.00 0.10 0.10 94 1017.5
20260831043514 23 11 0.0 0.0 0.00 0.10 0.10 93 1017.4
20260831043025 23 11 0.0 0.0 0.00 0.13 0.10 93 1017.5
20260831042513 23 11 0.0 0.0 0.00 0.13 0.10 93 1017.5
20260831042012 23 11 0.0 0.0 0.00 0.13 0.10 93 1017.5
20260831041530 24 11 0.0 0.0 0.00 0.13 0.10 93 1017.6
20260831041004 24 11 0.0 0.0 0.00 0.13 0.10 92 1017.5
20260831040504 24 11 0.0 0.0 0.00 0.13 0.10 92 1017.6
20260831040008 24 11 0.0 0.0 0.00 0.13 0.10 92 1017.6
20260831035503 24 11 0.0 0.0 0.00 0.13 0.10 92 1017.7
20260831035004 24 11 0.0 0.0 0.00 0.13 0.10 92 1017.7
20260831034515 24 11 0.0 0.0 0.00 0.13 0.10 91 1017.8
20260831034006 25 11 0.0 0.0 0.00 0.13 0.10 91 1017.9
20260831033508 25 11 0.0 0.0 0.00 0.13 0.10 90 1018.0
20260831033018 25 11 0.0 0.0 0.00 0.15 0.10 90 1018.0
20260831032509 25 11 0.0 0.0 0.00 0.15 0.10 90 1018.0
20260831032011 25 11 0.0 0.0 0.00 0.15 0.10 90 1018.0
20260831031539 25 11 0.0 0.0 0.00 0.15 0.10 89 1017.9
20260831031012 25 11 0.0 0.0 0.00 0.15 0.10 89 1017.8
20260831030512 25 11 0.0 0.0 0.00 0.15 0.10 89 1017.8
20260831030007 25 92 0.0 0.0 0.00 0.15 0.10 90 1017.8
20260831025502 25 92 0.0 0.0 0.00 0.15 0.10 89 1017.7
20260831025004 25 92 0.0 0.0 0.00 0.15 0.10 90 1017.9
20260831024510 25 92 0.0 0.0 0.00 0.15 0.10 89 1017.9
20260831024007 25 92 0.0 0.0 0.00 0.15 0.10 89 1017.9
20260831023504 25 92 0.0 0.0 0.00 0.15 0.10 90 1017.8
20260831023017 25 92 0.0 0.0 0.00 0.15 0.10 90 1017.8
20260831022510 25 92 0.0 0.0 0.00 0.18 0.10 90 1017.8
20260831022009 25 92 0.0 0.0 0.00 0.18 0.10 90 1017.8
20260831021525 26 92 0.0 0.0 0.00 0.18 0.10 89 1017.8
20260831021011 26 92 0.0 0.0 0.00 0.18 0.10 89 1017.7
20260831020512 26 92 0.0 0.0 0.00 0.18 0.10 89 1017.7
20260831020027 26 92 0.0 0.0 0.00 0.18 0.10 89 1017.7
20260831015513 26 92 0.0 0.0 0.00 0.18 0.10 89 1017.7
20260831015003 26 92 0.0 3.2 0.00 0.20 0.10 88 1017.7
20260831014508 26 92 0.0 4.8 0.00 0.20 0.10 88 1017.6
20260831014005 26 114 1.6 4.8 0.00 0.20 0.10 88 1017.5
20260831013504 26 90 0.0 3.2 0.00 0.20 0.10 88 1017.4
20260831013014 26 130 0.0 3.2 0.00 0.20 0.10 88 1017.4
20260831012508 26 130 0.0 3.2 0.00 0.20 0.10 87 1017.5
20260831012007 26 130 1.6 3.2 0.00 0.23 0.10 86 1017.3
20260831011527 27 123 0.0 0.0 0.00 0.23 0.10 86 1017.2
20260831011012 27 123 0.0 0.0 0.00 0.23 0.10 85 1017.3
20260831010517 27 171 0.0 4.8 0.00 0.25 0.10 84 1017.4
20260831010035 27 171 0.0 6.4 0.00 0.25 0.10 83 1017.3
20260831005514 27 170 1.6 11.3 0.00 0.25 0.10 83 1017.4
20260831005014 27 166 3.2 11.3 0.00 0.25 0.10 82 1017.4
20260831004508 27 165 6.4 11.3 0.00 0.28 0.10 81 1017.4
20260831004003 27 167 1.6 11.3 0.00 0.28 0.10 82 1017.4
20260831003505 27 196 3.2 8.0 0.00 0.28 0.10 82 1017.4
20260831003013 27 178 1.6 4.8 0.00 0.28 0.10 82 1017.4
20260831002507 27 185 1.6 6.4 0.00 0.30 0.10 82 1017.3
20260831002007 28 143 1.6 9.7 0.00 0.30 0.10 81 1017.4
20260831001517 28 160 4.8 9.7 0.00 0.30 0.10 81 1017.2
20260831001013 28 166 4.8 9.7 0.00 0.30 0.10 79 1017.3
20260831000512 28 123 4.8 12.9 0.00 0.33 0.10 79 1017.2
20260831000028 29 171 4.8 12.9 0.00 0.33 0.10 78 1017.1
20260830235512 29 66 0.0 0.0 0.00 0.33 0.10 78 1016.9
20260830235016 30 66 0.0 4.8 0.00 0.33 0.10 78 1016.7
20260830234543 30 61 0.0 4.8 0.00 0.33 0.10 77 1016.5
20260830234018 30 60 1.6 6.4 0.00 0.33 0.10 75 1016.4
20260830233505 30 49 0.0 6.4 0.00 0.33 0.10 75 1016.4
20260830233011 30 41 1.6 6.4 0.00 0.33 0.10 74 1016.3
20260830232506 30 55 1.6 6.4 0.00 0.33 0.10 74 1016.4
20260830232009 30 34 1.6 4.8 0.00 0.33 0.10 74 1016.3
20260830231517 30 24 1.6 6.4 0.00 0.33 0.10 73 1016.3
20260830231012 30 49 0.0 6.4 0.00 0.33 0.10 73 1016.3
20260830230510 30 27 1.6 6.4 0.00 0.33 0.10 73 1016.3
20260830230028 30 51 0.0 4.8 0.00 0.33 0.10 74 1016.2
20260830225513 30 36 1.6 3.2 0.00 0.33 0.10 74 1016.2
20260830225012 30 5 1.6 4.8 0.00 0.33 0.10 74 1016.2
20260830224527 30 17 1.6 4.8 0.00 0.33 0.10 72 1016.2
20260830224015 30 11 0.0 4.8 0.00 0.33 0.10 74 1016.2
20260830223516 30 24 0.0 4.8 0.00 0.33 0.10 73 1016.2
20260830223043 30 15 0.0 4.8 0.00 0.33 0.10 73 1016.2
20260830222502 31 34 1.6 4.8 0.00 0.33 0.10 72 1016.1
20260830222007 31 35 0.0 3.2 0.00 0.33 0.10 72 1016.1
20260830221525 31 36 0.0 6.4 0.00 0.33 0.10 71 1016.1
20260830221010 31 20 3.2 8.0 0.00 0.33 0.10 69 1016.0
20260830220509 31 42 1.6 12.9 0.00 0.33 0.10 67 1016.0
20260830220024 31 76 4.8 12.9 0.00 0.33 0.10 68 1016.0
20260830215509 31 20 3.2 9.7 0.00 0.33 0.10 68 1016.0
20260830215014 31 44 3.2 9.7 0.00 0.33 0.10 67 1016.0
20260830214530 31 14 3.2 12.9 0.00 0.33 0.10 68 1016.0
20260830214015 31 76 4.8 12.9 0.00 0.33 0.10 67 1016.0
20260830213514 31 87 4.8 11.3 0.00 0.33 0.10 68 1016.0
20260830213032 31 81 3.2 11.3 0.00 0.33 0.10 69 1016.0
20260830212518 31 42 3.2 8.0 0.00 0.33 0.10 67 1016.1
20260830212016 31 360 6.4 8.0 0.00 0.33 0.10 68 1016.2
20260830211514 31 31 3.2 6.4 0.00 0.33 0.10 71 1016.2
20260830211008 31 352 3.2 17.7 0.00 0.33 0.10 68 1016.2
20260830210509 32 5 6.4 17.7 0.00 0.33 0.10 66 1016.2
20260830210016 32 49 8.0 14.5 0.00 0.33 0.10 62 1016.2
20260830205512 32 88 6.4 12.9 0.00 0.33 0.10 63 1016.3
20260830205013 32 58 0.0 16.1 0.00 0.33 0.10 60 1016.4
20260830204536 32 82 6.4 16.1 0.00 0.33 0.10 60 1016.4
20260830204013 32 63 6.4 17.7 0.00 0.33 0.10 66 1016.4
20260830203503 32 94 6.4 17.7 0.00 0.33 0.10 62 1016.4
20260830203006 32 64 11.3 16.1 0.00 0.33 0.10 61 1016.4
20260830202504 32 94 12.9 16.1 0.00 0.33 0.10 64 1016.5
20260830202004 32 73 4.8 16.1 0.00 0.33 0.10 66 1016.5
20260830201511 32 69 9.7 16.1 0.00 0.33 0.10 65 1016.6
20260830201010 31 98 8.0 16.1 0.00 0.33 0.10 66 1016.6
20260830200507 31 101 1.6 12.9 0.00 0.33 0.10 65 1016.7
20260830200015 31 80 3.2 12.9 0.00 0.33 0.10 63 1016.6
20260830195509 31 78 4.8 11.3 0.00 0.33 0.10 65 1016.8
20260830195010 31 86 4.8 14.5 0.00 0.33 0.10 65 1016.8
20260830194524 31 115 6.4 14.5 0.00 0.33 0.10 64 1016.9
20260830194015 31 94 4.8 16.1 0.00 0.33 0.10 65 1017.0
20260830193514 31 111 9.7 16.1 0.00 0.33 0.10 66 1017.0
20260830193031 31 103 9.7 14.5 0.00 0.33 0.10 68 1017.1
20260830192502 31 87 6.4 11.3 0.00 0.33 0.10 70 1017.1
20260830192002 31 102 1.6 4.8 0.00 0.33 0.10 71 1017.4